Location: New Plymouth
(39.0670°S, 174.0830°E)
Time: 09:54:52
(UTC+12:00)

STRAND 1 - Pass Details

Date: 31 August 2019
Orbit: 768 x 781 km, 98.5° (Epoch: 18 September)

Event Time Altitude Azimuth Distance (km) Brightness Sun altitude
Rises 19:26:54 0° 3° (N) 3,249 ? -17.6°
Reaches altitude 10° 19:29:15 10° 358° (N) 2,332 ? -18.1°
Maximum altitude 19:34:18 54° 280° (W) 950 ? -19.1°
Drops below altitude 10° 19:39:25 10° 203° (SSW) 2,368 ? -20.1°
Sets 19:41:49 0° 198° (SSW) 3,305 ? -20.5°
